TimeEDT,TemperatureF,Dew PointF,Humidity,Sea Level PressureIn,VisibilityMPH,Wind Direction,Wind SpeedMPH,Gust SpeedMPH,PrecipitationIn,Events,Conditions,WindDirDegrees,DateUTC
12:15 AM,67.5,66.0,95,30.05,7.0,NW,3.5,-,N/A,,Overcast,310,2013-06-02 04:15:00
12:35 AM,67.1,66.4,98,30.06,5.0,Calm,Calm,-,N/A,,Overcast,0,2013-06-02 04:35:00
12:55 AM,67.1,65.8,96,30.05,10.0,Calm,Calm,-,N/A,,Overcast,0,2013-06-02 04:55:00
1:15 AM,67.3,66.4,97,30.05,7.0,Calm,Calm,-,N/A,,Overcast,0,2013-06-02 05:15:00
1:35 AM,67.3,66.6,98,30.06,7.0,Calm,Calm,-,N/A,,Overcast,0,2013-06-02 05:35:00
1:55 AM,67.1,66.6,98,30.06,5.0,Calm,Calm,-,N/A,,Overcast,0,2013-06-02 05:55:00
2:15 AM,67.3,66.6,98,30.06,5.0,Calm,Calm,-,N/A,,Overcast,0,2013-06-02 06:15:00
2:35 AM,67.3,66.6,98,30.06,7.0,Calm,Calm,-,N/A,,Overcast,0,2013-06-02 06:35:00
2:55 AM,67.1,66.6,98,30.05,5.0,Calm,Calm,-,N/A,Rain,Light Rain,0,2013-06-02 06:55:00
3:15 AM,67.3,66.6,98,30.04,5.0,Calm,Calm,-,N/A,,Overcast,0,2013-06-02 07:15:00
3:35 AM,67.1,66.4,98,30.03,5.0,Calm,Calm,-,N/A,,Overcast,0,2013-06-02 07:35:00
3:55 AM,67.1,66.2,97,30.03,7.0,Calm,Calm,-,N/A,,Overcast,0,2013-06-02 07:55:00
4:15 AM,67.1,66.4,98,30.03,7.0,Calm,Calm,-,N/A,,Overcast,0,2013-06-02 08:15:00
4:35 AM,67.1,66.2,97,30.03,7.0,Calm,Calm,-,N/A,,Light Drizzle,0,2013-06-02 08:35:00
4:55 AM,67.1,66.2,97,30.01,5.0,Calm,Calm,-,N/A,Rain,Rain,0,2013-06-02 08:55:00
5:15 AM,67.1,66.4,98,30.02,5.0,Calm,Calm,-,N/A,Rain,Rain,0,2013-06-02 09:15:00
5:35 AM,66.9,66.4,98,30.01,7.0,Calm,Calm,-,N/A,,Light Drizzle,0,2013-06-02 09:35:00
5:55 AM,66.7,66.2,98,30.01,4.0,Calm,Calm,-,N/A,Rain,Rain,0,2013-06-02 09:55:00
6:15 AM,67.1,66.4,98,30.03,4.0,Calm,Calm,-,N/A,Rain,Light Rain,0,2013-06-02 10:15:00
6:35 AM,66.9,66.2,98,30.03,4.0,Calm,Calm,-,N/A,Rain,Rain,0,2013-06-02 10:35:00
6:55 AM,67.1,66.0,96,30.03,5.0,WSW,5.8,-,N/A,Rain,Rain,240,2013-06-02 10:55:00
7:15 AM,67.1,66.2,97,30.03,2.5,Calm,Calm,-,N/A,Rain,Heavy Rain,0,2013-06-02 11:15:00
7:35 AM,67.1,66.0,96,30.03,5.0,Calm,Calm,-,N/A,Rain,Rain,0,2013-06-02 11:35:00
7:55 AM,67.1,66.4,98,30.02,5.0,Calm,Calm,-,N/A,Rain,Light Rain,0,2013-06-02 11:55:00
8:15 AM,67.1,66.4,98,30.01,4.0,Calm,Calm,-,N/A,Rain,Rain,0,2013-06-02 12:15:00
8:35 AM,67.1,66.4,98,30.01,4.0,Calm,Calm,-,N/A,Rain,Light Rain,0,2013-06-02 12:35:00
8:55 AM,67.1,66.4,98,30.00,5.0,Calm,Calm,-,N/A,Rain,Light Rain,0,2013-06-02 12:55:00
9:15 AM,67.1,66.4,98,30.01,7.0,Calm,Calm,-,0.01,Rain,Rain,0,2013-06-02 13:15:00
9:35 AM,67.1,66.4,98,30.02,2.5,Calm,Calm,-,0.01,Rain,Rain,0,2013-06-02 13:35:00
9:55 AM,67.1,66.6,98,30.02,10.0,Calm,Calm,-,0.01,Rain,Light Rain,0,2013-06-02 13:55:00
10:15 AM,67.3,66.7,98,30.02,10.0,Calm,Calm,-,N/A,,Overcast,0,2013-06-02 14:15:00
10:35 AM,67.5,66.7,98,30.02,10.0,Calm,Calm,-,N/A,,Overcast,0,2013-06-02 14:35:00
10:55 AM,68.4,67.1,96,30.01,10.0,Calm,Calm,-,N/A,,Overcast,0,2013-06-02 14:55:00
11:15 AM,69.3,67.1,93,30.01,10.0,West,3.5,-,N/A,,Overcast,280,2013-06-02 15:15:00
11:35 AM,69.3,67.5,94,30.01,2.0,SW,3.5,-,N/A,Rain,Heavy Rain,230,2013-06-02 15:35:00
11:55 AM,69.1,67.5,95,30.01,10.0,West,3.5,-,N/A,,Overcast,280,2013-06-02 15:55:00
12:15 PM,70.9,68.2,91,30.01,10.0,Calm,Calm,-,N/A,,Overcast,0,2013-06-02 16:15:00
12:35 PM,72.0,68.5,89,30.00,10.0,Calm,Calm,-,N/A,,Overcast,0,2013-06-02 16:35:00
12:55 PM,72.7,69.4,90,29.99,10.0,Calm,Calm,-,N/A,,Overcast,0,2013-06-02 16:55:00
1:15 PM,71.6,68.5,90,29.99,5.0,West,3.5,-,N/A,Rain,Light Rain,280,2013-06-02 17:15:00
1:35 PM,72.0,68.7,89,29.99,10.0,Calm,Calm,-,N/A,,Light Drizzle,0,2013-06-02 17:35:00
1:55 PM,72.3,69.8,92,29.98,10.0,NNW,8.1,-,N/A,,Overcast,340,2013-06-02 17:55:00
2:35 PM,67.5,65.7,94,30.00,2.5,East,4.6,-,0.06,Rain,Rain,80,2013-06-02 18:35:00
2:55 PM,67.1,65.5,95,30.00,3.0,ENE,6.9,-,0.06,Rain,Rain,70,2013-06-02 18:55:00
3:15 PM,68.5,66.0,92,29.99,1.0,North,4.6,-,N/A,Rain,Light Rain,10,2013-06-02 19:15:00
3:35 PM,70.0,66.6,89,29.99,10.0,Calm,Calm,-,N/A,,Mostly Cloudy,0,2013-06-02 19:35:00
3:55 PM,69.8,65.7,87,29.98,5.0,Calm,Calm,-,N/A,Rain,Light Rain,0,2013-06-02 19:55:00
4:15 PM,70.9,65.8,84,29.97,5.0,Calm,Calm,-,N/A,,Haze,0,2013-06-02 20:15:00
4:35 PM,71.1,65.7,83,29.97,4.0,Calm,Calm,-,N/A,,Haze,0,2013-06-02 20:35:00
4:55 PM,70.9,65.7,83,29.96,7.0,Calm,Calm,-,N/A,,Overcast,0,2013-06-02 20:55:00
5:15 PM,71.2,65.7,82,29.95,7.0,Calm,Calm,-,N/A,,Overcast,0,2013-06-02 21:15:00
5:35 PM,71.6,66.4,84,29.95,3.0,Calm,Calm,-,N/A,,Haze,0,2013-06-02 21:35:00
5:55 PM,71.6,66.4,84,29.94,2.5,SE,3.5,-,N/A,,Haze,140,2013-06-02 21:55:00
6:15 PM,71.6,65.8,82,29.95,2.0,Calm,Calm,-,N/A,,Haze,0,2013-06-02 22:15:00
6:35 PM,71.6,66.4,84,29.94,4.0,Calm,Calm,-,N/A,,Haze,0,2013-06-02 22:35:00
6:55 PM,72.0,65.5,80,29.96,10.0,Calm,Calm,-,N/A,,Mostly Cloudy,0,2013-06-02 22:55:00
7:15 PM,72.1,66.6,83,29.95,10.0,Calm,Calm,-,N/A,,Overcast,0,2013-06-02 23:15:00
7:35 PM,71.8,66.9,85,29.96,10.0,Calm,Calm,-,N/A,,Overcast,0,2013-06-02 23:35:00
7:55 PM,71.1,67.5,88,29.96,10.0,Calm,Calm,-,N/A,,Overcast,0,2013-06-02 23:55:00
8:15 PM,70.3,67.6,91,29.96,10.0,Calm,Calm,-,N/A,,Overcast,0,2013-06-03 00:15:00
8:35 PM,69.8,66.6,89,29.96,10.0,NNE,6.9,-,N/A,Rain,Light Rain,20,2013-06-03 00:35:00
8:55 PM,67.1,63.3,88,29.96,4.0,ENE,3.5,-,0.01,Rain,Light Rain,70,2013-06-03 00:55:00
9:15 PM,67.1,62.8,86,29.97,5.0,Calm,Calm,-,N/A,,Light Drizzle,0,2013-06-03 01:15:00
9:35 PM,66.0,64.6,95,29.97,7.0,Calm,Calm,-,N/A,,Overcast,0,2013-06-03 01:35:00
9:55 PM,65.8,63.9,93,29.98,7.0,Calm,Calm,-,N/A,,Overcast,0,2013-06-03 01:55:00
10:15 PM,65.5,64.0,95,29.98,3.0,Calm,Calm,-,N/A,,Overcast,0,2013-06-03 02:15:00
10:35 PM,64.6,63.3,96,29.98,10.0,Calm,Calm,-,N/A,,Mostly Cloudy,0,2013-06-03 02:35:00
10:55 PM,64.4,63.5,97,29.99,10.0,Calm,Calm,-,N/A,,Mostly Cloudy,0,2013-06-03 02:55:00
11:15 PM,63.9,62.8,96,29.98,3.0,Calm,Calm,-,N/A,,Overcast,0,2013-06-03 03:15:00
11:35 PM,64.0,62.2,94,29.97,10.0,Calm,Calm,-,N/A,,Overcast,0,2013-06-03 03:35:00
11:55 PM,63.5,62.6,97,29.96,3.0,Calm,Calm,-,N/A,,Mostly Cloudy,0,2013-06-03 03:55:00